Heber, UT

11:34 AM MDT on May 20, 2018 (GMT -0600)
Heber

Weather History for K36U - August, 2014

Change the Weather History Date:

Wednesday, August 27, 2014

  Actual Average (KPVU) Record (KPVU)
Temperature  
Mean Temperature 58 °F -  
Max Temperature 66 °F 83 °F 96 °F (2001)
Min Temperature 48 °F 54 °F 41 °F (2004)
Degree Days  
Heating Degree Days 7    
Growing Degree Days 8 (Base 50)    
Moisture  
Dew Point 50 °F    
Average Humidity 77    
Maximum Humidity 100    
Minimum Humidity 55    
Precipitation  
Precipitation 0.00 in - - ()
Sea Level Pressure  
Sea Level Pressure 30.27 in    
Wind  
Wind Speed 2 mph (SW)    
Max Wind Speed 15 mph    
Max Gust Speed 20 mph    
Visibility 10 miles    
Events Rain , Thunderstorm    
Averages and records for this station are not official NWS values.
T = Trace of Precipitation, MM = Missing Value Source: NWS Daily Summary

Daily Weather History Graph

Daily Weather History Graph

Search for Another Location

Airport or City:

Astronomy

Aug. 27, 2014 Rise Set
Actual Time 6:48 AM MDT 8:05 PM MDT
Civil Twilight 6:19 AM MDT 8:33 PM MDT
Nautical Twilight 5:45 AM MDT 9:07 PM MDT
Astronomical Twilight 5:10 AM MDT 9:43 PM MDT
Moon 8:48 AM MDT (8/27) 8:58 PM MDT (8/27)
Length of Visible Light 14h 13m
Length of Day
13h 17m
Waxing Crescent, 4% of the Moon is Illuminated
Aug 27
Waxing Crescent
Sep 2
First Quarter
Sep 8
Full
Sep 15
Last Quarter
Sep 24
New

Hourly Weather History & Observations

Time (MDT) Temp. Dew Point Humidity Pressure Visibility Wind Dir Wind Speed Gust Speed Precip Events Conditions
12:15 AM 55.4 °F 48.2 °F 77% 30.22 in 10.0 mi East 3.5 mph - N/A   Clear
12:35 AM 55.4 °F 48.2 °F 77% 30.23 in 10.0 mi ENE 4.6 mph - N/A   Mostly Cloudy
12:55 AM 55.4 °F 48.2 °F 77% 30.23 in 10.0 mi Calm Calm - N/A   Overcast
1:15 AM 55.4 °F 48.2 °F 77% 30.23 in 10.0 mi Calm Calm - N/A   Mostly Cloudy
1:35 AM 55.4 °F 48.2 °F 77% 30.23 in 10.0 mi Calm Calm - N/A   Overcast
1:55 AM 55.4 °F 48.2 °F 77% 30.23 in 10.0 mi Calm Calm - N/A   Overcast
2:15 AM 55.4 °F 50.0 °F 82% 30.23 in 10.0 mi Calm Calm - N/A   Overcast
2:35 AM 53.6 °F 50.0 °F 88% 30.23 in 10.0 mi ESE 5.8 mph - N/A   Overcast
2:55 AM 53.6 °F 50.0 °F 88% 30.22 in 10.0 mi Calm Calm - N/A   Mostly Cloudy
3:15 AM 55.4 °F 48.2 °F 77% 30.22 in 10.0 mi Calm Calm - N/A   Clear
3:35 AM 55.4 °F 48.2 °F 77% 30.23 in 10.0 mi Calm Calm - N/A   Scattered Clouds
3:55 AM 53.6 °F 48.2 °F 82% 30.22 in 10.0 mi SSE 3.5 mph - N/A   Mostly Cloudy
4:15 AM 53.6 °F 50.0 °F 88% 30.22 in 10.0 mi Calm Calm - N/A   Overcast
4:35 AM 53.6 °F 50.0 °F 88% 30.22 in 10.0 mi Calm Calm - N/A   Overcast
4:55 AM 53.6 °F 50.0 °F 88% 30.23 in 10.0 mi Calm Calm - N/A   Overcast
5:15 AM 55.4 °F 48.2 °F 77% 30.23 in 10.0 mi Calm Calm - N/A   Overcast
5:35 AM 53.6 °F 50.0 °F 88% 30.23 in 10.0 mi Calm Calm - N/A   Overcast
5:55 AM 53.6 °F 50.0 °F 88% 30.23 in 10.0 mi Calm Calm - N/A   Overcast
6:15 AM 55.4 °F 50.0 °F 82% 30.24 in 10.0 mi Calm Calm - N/A   Overcast
6:35 AM 53.6 °F 50.0 °F 88% 30.24 in 10.0 mi Calm Calm - N/A   Overcast
6:55 AM 53.6 °F 50.0 °F 88% 30.25 in 10.0 mi Calm Calm - N/A   Overcast
7:15 AM 53.6 °F 50.0 °F 88% 30.25 in 10.0 mi Calm Calm - N/A   Overcast
7:35 AM 53.6 °F 50.0 °F 88% 30.26 in 10.0 mi Calm Calm - N/A   Overcast
7:55 AM 53.6 °F 50.0 °F 88% 30.26 in 10.0 mi Calm Calm - N/A Thunderstorm Overcast
8:15 AM 53.6 °F 50.0 °F 88% 30.27 in 10.0 mi Calm Calm - N/A   Overcast
8:35 AM 55.4 °F 50.0 °F 82% 30.27 in 10.0 mi Calm Calm - N/A   Overcast
8:55 AM 57.2 °F 50.0 °F 77% 30.27 in 10.0 mi Calm Calm - N/A   Overcast
9:15 AM 57.2 °F 50.0 °F 77% 30.27 in 10.0 mi Calm Calm - N/A   Overcast
9:35 AM 59.0 °F 48.2 °F 67% 30.27 in 10.0 mi Calm Calm - N/A   Overcast
9:55 AM 59.0 °F 48.2 °F 67% 30.28 in 10.0 mi Calm Calm - N/A   Overcast
10:15 AM 60.8 °F 50.0 °F 68% 30.28 in 10.0 mi Calm Calm - N/A   Overcast
10:35 AM 60.8 °F 48.2 °F 63% 30.28 in 10.0 mi Calm Calm - N/A   Overcast
10:55 AM 60.8 °F 50.0 °F 68% 30.28 in 10.0 mi West 3.5 mph - N/A   Overcast
11:15 AM 60.8 °F 50.0 °F 68% 30.28 in 10.0 mi WSW 3.5 mph - N/A   Overcast
11:35 AM 62.6 °F 48.2 °F 59% 30.28 in 10.0 mi WNW 4.6 mph - N/A   Overcast
11:55 AM 64.4 °F 48.2 °F 56% 30.27 in 10.0 mi Calm Calm - N/A   Overcast
12:15 PM 66.2 °F 50.0 °F 56% 30.27 in 10.0 mi West 4.6 mph - N/A   Overcast
12:35 PM 62.6 °F 50.0 °F 63% 30.27 in 10.0 mi WSW 6.9 mph - N/A Thunderstorm Overcast
12:55 PM 60.8 °F 51.8 °F 72% 30.27 in 7.0 mi West 8.1 mph - N/A Rain Rain
1:15 PM 59.0 °F 51.8 °F 77% 30.27 in 10.0 mi SSW 5.8 mph - N/A Thunderstorm Drizzle
1:35 PM 60.8 °F 51.8 °F 72% 30.26 in 10.0 mi SW 10.4 mph - N/A Rain Rain
1:55 PM 62.6 °F 50.0 °F 63% 30.27 in 10.0 mi WSW 10.4 mph - N/A   Overcast
2:15 PM 62.6 °F 46.4 °F 55% 30.26 in 10.0 mi WSW 9.2 mph - N/A   Overcast
2:35 PM 62.6 °F 48.2 °F 59% 30.27 in 10.0 mi Calm Calm - N/A Thunderstorm Unknown
2:55 PM 62.6 °F 48.2 °F 59% 30.26 in 10.0 mi SE 3.5 mph - N/A Thunderstorm Overcast
3:15 PM 66.2 °F 50.0 °F 56% 30.26 in 10.0 mi WSW 4.6 mph - N/A   Mostly Cloudy
3:35 PM 64.4 °F 50.0 °F 59% 30.25 in 10.0 mi West 3.5 mph - N/A   Mostly Cloudy
3:55 PM 64.4 °F 50.0 °F 59% 30.26 in 10.0 mi West 5.8 mph - N/A Thunderstorm Overcast
4:15 PM 60.8 °F 50.0 °F 68% 30.28 in 10.0 mi East 15.0 mph 19.6 mph N/A Rain Light Rain
4:35 PM 55.4 °F 50.0 °F 82% 30.30 in 10.0 mi SE 3.5 mph - N/A Rain Light Rain
4:55 PM 55.4 °F 50.0 °F 82% 30.29 in 10.0 mi SSE 5.8 mph - N/A Rain , Thunderstorm Light Thunderstorms and Rain
5:15 PM 59.0 °F 50.0 °F 72% 30.29 in 10.0 mi South 4.6 mph - N/A Thunderstorm Thunderstorm
5:35 PM 59.0 °F 51.8 °F 77% 30.30 in 10.0 mi WSW 10.4 mph - N/A Thunderstorm Overcast
5:55 PM 59.0 °F 50.0 °F 72% 30.30 in 10.0 mi WSW 8.1 mph - N/A   Mostly Cloudy
6:15 PM 59.0 °F 50.0 °F 72% 30.30 in 10.0 mi SW 3.5 mph - N/A   Mostly Cloudy
6:35 PM 59.0 °F 50.0 °F 72% 30.30 in 10.0 mi West 5.8 mph - N/A   Scattered Clouds
6:55 PM 57.2 °F 50.0 °F 77% 30.30 in 10.0 mi West 4.6 mph - N/A   Mostly Cloudy
7:15 PM 59.0 °F 50.0 °F 72% 30.30 in 10.0 mi Calm Calm - N/A   Overcast
7:35 PM 59.0 °F 50.0 °F 72% 30.30 in 10.0 mi Calm Calm - N/A   Overcast
7:55 PM 57.2 °F 50.0 °F 77% 30.31 in 10.0 mi Calm Calm - N/A   Overcast
8:15 PM 55.4 °F 51.8 °F 88% 30.32 in 10.0 mi North 3.5 mph - N/A Rain Light Rain
8:35 PM 55.4 °F 51.8 °F 88% 30.31 in 7.0 mi Calm Calm - N/A   Drizzle
8:55 PM 55.4 °F 51.8 °F 88% 30.32 in 10.0 mi NNE 3.5 mph - N/A   Overcast
9:15 PM 53.6 °F 51.8 °F 94% 30.32 in 10.0 mi East 4.6 mph - N/A   Mostly Cloudy
9:35 PM 51.8 °F 50.0 °F 94% 30.32 in 10.0 mi Calm Calm - N/A   Scattered Clouds
9:55 PM 53.6 °F 51.8 °F 94% 30.32 in 10.0 mi Calm Calm - N/A   Scattered Clouds
10:15 PM 51.8 °F 50.0 °F 94% 30.32 in 10.0 mi Calm Calm - N/A   Scattered Clouds
10:35 PM 50.0 °F 50.0 °F 100% 30.32 in 10.0 mi Calm Calm - N/A   Clear
10:55 PM 50.0 °F 46.4 °F 87% 30.32 in 10.0 mi Calm Calm - N/A   Clear
11:35 PM 50.0 °F 46.4 °F 87% 30.32 in 10.0 mi Calm Calm - N/A   Clear
11:55 PM 48.2 °F 46.4 °F 93% 30.32 in 10.0 mi ESE 3.5 mph - N/A   Clear